15 daagse weersverwachting Mo i Rana (NO)

  • Overzicht
  • Per uur
  • 15 dagen
  • Extra
  • Vergelijk
  • Kaarten
  • Dagkaart
  • Meer »
  • Info
  • Statistieken
  • Directe link
    Temp 6h Neerslag Wind  
 05:43     20:28    Daglengte: 14:45 Vandaag
14:00
 
4
20:00
-0°
 
4
 05:39     20:32    Daglengte: 14:53 Morgen
02:00
-1°
 
4
08:00
-1°
 
4
14:00
4.3 mm
8
warningclass
20:00
-1°
4.0 mm
3
warningclass
 05:35     20:35    Daglengte: 15:00 Zaterdag 11 Apr
02:00
-3°
 
3
08:00
-2°
 
3
14:00
-0°
 
3
20:00
-1°
 
2
 05:31     20:38    Daglengte: 15:07 Zondag 12 Apr
02:00
-1°
 
2
08:00
-2°
5.9 mm
2
warningclass
Locatie info
Region: Nordland
Latitude: 66.3106°N
Longitude: 14.1346°E
40 masl
Postcode: 8622
Temp/Neerslag /Baro Onweer/DauwpuntSneeuw
    Temp Baro 1h Neerslag Dauwpunt Wind UV BewolkingSneeuw  
 05:43     20:28    Daglengte: 14:45 Vandaag
14:00
Voelt als: -2.1°
1014.2 hPa
49%
-3.9°
4
Windvlaag: 6 km/h
8%114 cm
15:00
Voelt als: -2.0°
1014.9 hPa
20%
-4.7°
4
Windvlaag: 5.9 km/h
11%113 cm
16:00
Voelt als: -2.1°
1015.7 hPa
15%
-4.5°
4
Windvlaag: 6.2 km/h
18%112 cm
17:00
Voelt als: -1.9°
1016.1 hPa
23%
-4.4°
3
Windvlaag: 4.3 km/h
42%111 cm
18:00
Voelt als: -2.8°
1016.3 hPa
29%
-2.6°
4
Windvlaag: 4.3 km/h
37%111 cm
19:00
Voelt als: -3.5°
1016.6 hPa
31%
-2.8°
4
Windvlaag: 4.8 km/h
43%110 cm
20:00
-0°
Voelt als: -4.2°
1016.9 hPa
30%
-3.5°
4
Windvlaag: 5.2 km/h
50%110 cm
21:00
-1°
Voelt als: -4.8°
1017.2 hPa
34%
-3.8°
3
Windvlaag: 5.2 km/h
60%110 cm
22:00
-1°
Voelt als: -5.7°
1017.3 hPa
78%
-4.3°
4
Windvlaag: 5.3 km/h
68%110 cm
23:00
-1°
Voelt als: -5.5°
1017.6 hPa
79%
-4.3°
3
Windvlaag: 5.3 km/h
73%110 cm
 05:39     20:32    Daglengte: 14:53 Morgen
00:00
-1°
Voelt als: -5.4°
1017.7 hPa
75%
-3.7°
3
Windvlaag: 4.2 km/h
68%110 cm
01:00
-1°
Voelt als: -5.5°
1017.8 hPa
82%
-3.1°
4
Windvlaag: 4.1 km/h
54%110 cm
02:00
-1°
Voelt als: -5.6°
1018.0 hPa
81%
-3.9°
4
Windvlaag: 4 km/h
63%110 cm
03:00
-2°
Voelt als: -6.0°
1018.0 hPa
82%
-4.4°
4
Windvlaag: 4.7 km/h
69%110 cm
04:00
-2°
Voelt als: -6.3°
1017.9 hPa
77%
-4.7°
4
Windvlaag: 4.8 km/h
72%110 cm
05:00
-2°
Voelt als: -6.5°
1017.9 hPa
78%
-4.6°
4
Windvlaag: 5.1 km/h
55%110 cm
06:00
-2°
Voelt als: -6.7°
1018.1 hPa
77%
-5.0°
4
Windvlaag: 6.1 km/h
70%110 cm
07:00
-2°
Voelt als: -6.4°
1017.8 hPa
76%
-4.3°
4
Windvlaag: 4.6 km/h
65%110 cm
08:00
-1°
Voelt als: -5.8°
1017.8 hPa
41%
-4.1°
4
Windvlaag: 4.4 km/h
62%109 cm
09:00
-1°
Voelt als: -5.8°
1017.3 hPa
82%
-3.0°
4
Windvlaag: 4 km/h
76%109 cm
10:00
-1°
Voelt als: -5.5°
1017.0 hPa 1.6 mm
82%
-3.1°
5
Windvlaag: 7.2 km/h
81%109 cm warningclass
11:00
Voelt als: -4.7°
1017.0 hPa 0.6 mm
82%
-2.7°
5
Windvlaag: 7.6 km/h
82%109 cm warningclass
12:00
Voelt als: -4.6°
1016.7 hPa 0.7 mm
82%
-3.6°
7
Windvlaag: 11 km/h
83%109 cm warningclass
13:00
Voelt als: -5.2°
1016.5 hPa 0.5 mm
82%
-2.0°
8
Windvlaag: 12.6 km/h
88%108 cm warningclass
14:00
Voelt als: -5.6°
1016.2 hPa 0.9 mm
82%
-1.4°
8
Windvlaag: 14 km/h
87%107 cm warningclass
15:00
Voelt als: -4.5°
1016.6 hPa 1.1 mm
82%
-2.3°
7
Windvlaag: 12.1 km/h
72%106 cm warningclass
16:00
Voelt als: -4.5°
1016.9 hPa 0.6 mm
82%
-2.8°
6
Windvlaag: 10.8 km/h
80%105 cm warningclass
17:00
Voelt als: -4.1°
1017.3 hPa 0.7 mm
82%
-3.5°
5
Windvlaag: 7.6 km/h
72%106 cm warningclass
18:00
Voelt als: -4.1°
1017.9 hPa 0.9 mm
82%
-4.4°
4
Windvlaag: 5.2 km/h
61%106 cm warningclass
19:00
-0°
Voelt als: -4.0°
1018.5 hPa 0.7 mm
82%
-4.6°
3
Windvlaag: 4.8 km/h
41%105 cm warningclass
20:00
-1°
Voelt als: -5.2°
1018.9 hPa
76%
-5.0°
3
Windvlaag: 4.2 km/h
40%105 cm
21:00
-1°
Voelt als: -5.4°
1019.5 hPa
32%
-4.6°
3
Windvlaag: 4.6 km/h
26%105 cm
22:00
-2°
Voelt als: -6.5°
1019.9 hPa
28%
-4.9°
4
Windvlaag: 4.8 km/h
41%105 cm
23:00
-2°
Voelt als: -6.7°
1020.3 hPa
21%
-5.1°
3
Windvlaag: 4.9 km/h
16%105 cm
 05:35     20:35    Daglengte: 15:00 Zaterdag 11 Apr
00:00
-2°
Voelt als: -6.6°
1020.7 hPa
31%
-5.2°
3
Windvlaag: 4.8 km/h
30%105 cm
01:00
-2°
Voelt als: -6.8°
1021.2 hPa
36%
-5.1°
3
Windvlaag: 4.9 km/h
40%105 cm
02:00
-3°
Voelt als: -6.9°
1021.7 hPa
38%
-5.3°
3
Windvlaag: 4.8 km/h
42%105 cm
03:00
-3°
Voelt als: -6.8°
1022.0 hPa
82%
-5.2°
3
Windvlaag: 4.1 km/h
67%105 cm
04:00
-3°
Voelt als: -6.7°
1022.1 hPa
82%
-5.0°
3
Windvlaag: 3.8 km/h
44%105 cm
05:00
-3°
Voelt als: -7.0°
1022.3 hPa
82%
-5.6°
3
Windvlaag: 3.8 km/h
48%105 cm
06:00
-3°
Voelt als: -6.9°
1022.5 hPa
82%
-5.6°
3
Windvlaag: 3.2 km/h
28%105 cm
07:00
-3°
Voelt als: -6.5°
1022.5 hPa
82%
-5.5°
2
Windvlaag: 2.6 km/h
11%105 cm
08:00
-2°
Voelt als: -6.0°
1022.5 hPa
32%
-4.7°
3
Windvlaag: 3.8 km/h
20%105 cm
09:00
-1°
Voelt als: -5.1°
1022.5 hPa
34%
-4.3°
3
Windvlaag: 4.5 km/h
65%105 cm
10:00
-1°
Voelt als: -4.0°
1022.6 hPa
36%
-4.5°
3
Windvlaag: 4.2 km/h
67%105 cm
11:00
-1°
Voelt als: -2.9°
1022.4 hPa
95%
-5.4°
2
Windvlaag: 3 km/h
92%105 cm
12:00
-1°
Voelt als: -3.9°
1022.2 hPa
100%
-5.7°
3
Windvlaag: 3.8 km/h
90%105 cm
13:00
-0°
Voelt als: -4.1°
1022.0 hPa
100%
-5.6°
3
Windvlaag: 4.4 km/h
92%104 cm
14:00
-0°
Voelt als: -3.2°
1021.5 hPa
100%
-6.0°
3
Windvlaag: 4.2 km/h
89%103 cm
15:00
-0°
Voelt als: -2.7°
1020.9 hPa
100%
-6.3°
2
Windvlaag: 4.1 km/h
94%102 cm
16:00
-0°
Voelt als: -2.6°
1020.0 hPa
100%
-6.3°
2
Windvlaag: 3.8 km/h
93%102 cm
17:00
-0°
Voelt als: -2.8°
1018.9 hPa
100%
-6.6°
2
Windvlaag: 3.9 km/h
89%102 cm
18:00
-0°
Voelt als: -3.9°
1017.9 hPa
100%
-6.3°
3
Windvlaag: 4.7 km/h
92%102 cm
19:00
-1°
Voelt als: -4.3°
1016.8 hPa
92%
-5.9°
3
Windvlaag: 5.9 km/h
95%101 cm
20:00
-1°
Voelt als: -3.8°
1015.6 hPa
83%
-6.8°
2
Windvlaag: 5.8 km/h
99%101 cm
21:00
-2°
Voelt als: -4.0°
1014.3 hPa
39%
-6.2°
2
Windvlaag: 1.9 km/h
100%101 cm
22:00
-2°
Voelt als: -4.0°
1012.9 hPa
36%
-5.8°
2
Windvlaag: 1.8 km/h
100%101 cm
23:00
-2°
Voelt als: -4.2°
1011.5 hPa
31%
-5.6°
2
Windvlaag: 1.7 km/h
94%101 cm
 05:31     20:38    Daglengte: 15:07 Zondag 12 Apr
00:00
-2°
Voelt als: -4.1°
1010.1 hPa
22%
-5.6°
2
Windvlaag: 1.3 km/h
94%101 cm
01:00
-2°
Voelt als: -4.1°
1008.7 hPa
21%
-5.0°
2
Windvlaag: 0.9 km/h
88%101 cm
02:00
-1°
Voelt als: -3.6°
1007.3 hPa
21%
-4.4°
2
Windvlaag: 0.3 km/h
88%101 cm
03:00
-1°
Voelt als: -3.4°
1006.0 hPa
21%
-4.0°
2
Windvlaag: 1.1 km/h
88%101 cm
04:00
-1°
Voelt als: -3.4°
1004.6 hPa
21%
-3.8°
2
Windvlaag: 0.9 km/h
88%101 cm
05:00
-1°
Voelt als: -3.6°
1003.3 hPa 1.3 mm
23%
-3.8°
2
Windvlaag: 1.2 km/h
88%101 cm warningclass
06:00
-2°
Voelt als: -3.6°
1002.1 hPa 1.5 mm
24%
-3.7°
1
Windvlaag: 1.1 km/h
88%101 cm warningclass
07:00
-2°
Voelt als: -3.7°
1001.3 hPa 1.6 mm
24%
-3.9°
2
Windvlaag: 1.2 km/h
85%101 cm warningclass
08:00
-2°
Voelt als: -4.2°
1001.0 hPa 1.5 mm
32%
-4.1°
2
Windvlaag: 0.8 km/h
82%101 cm warningclass
09:00
-1°
Voelt als: -2.6°
1000.0 hPa
87%
-2.6°
1
Windvlaag: 7.8 km/h
85%101 cm
10:00
-0°
Voelt als: -2.5°
999.7 hPa
48%
-2.6°
2
Windvlaag: 9.9 km/h
73%101 cm
11:00
Voelt als: -1.8°
999.3 hPa
96%
-2.4°
2
Windvlaag: 4 km/h
83%101 cm
12:00
Voelt als: -0.9°
999.1 hPa 1.7 mm
100%
-1.8°
1
Windvlaag: 5.6 km/h
73%100 cm warningclass
13:00
Voelt als: -1.0°
998.7 hPa 1.6 mm
93%
-1.3°
2
Windvlaag: 12.5 km/h
71%99 cm warningclass
Temp/Neerslag /Baro Onweer/DauwpuntSneeuw
    Temp Baro Neerslag Dauwpunt Wind BewolkingSneeuw  
 05:43     20:28    Daglengte: 14:45 Vandaag
14:00
Voelt als: -2.1°
1014.2 hPa   -3.9°
4
8%114 cm
17:00
Voelt als: -1.9°
1016.1 hPa   -4.4°
3
42%111 cm
20:00
-0°
Voelt als: -4.2°
1016.9 hPa   -3.5°
4
50%110 cm
23:00
-1°
Voelt als: -5.5°
1017.6 hPa   -4.3°
3
73%110 cm
 05:39     20:32    Daglengte: 14:53 Morgen
02:00
-1°
Voelt als: -5.6°
1018.0 hPa   -3.9°
4
63%110 cm
05:00
-2°
Voelt als: -6.5°
1017.9 hPa   -4.6°
4
55%110 cm
08:00
-1°
Voelt als: -5.8°
1017.8 hPa   -4.1°
4
62%109 cm
11:00
Voelt als: -4.7°
1017.0 hPa 2.1 mm -2.7°
5
82%109 cm warningclass
14:00
Voelt als: -5.6°
1016.2 hPa 2.2 mm -1.4°
8
87%107 cm warningclass
17:00
Voelt als: -4.1°
1017.3 hPa 2.4 mm -3.5°
5
72%106 cm warningclass
20:00
-1°
Voelt als: -5.2°
1018.9 hPa 1.6 mm -5.0°
3
40%105 cm warningclass
23:00
-2°
Voelt als: -6.7°
1020.3 hPa   -5.1°
3
16%105 cm
 05:35     20:35    Daglengte: 15:00 Zaterdag 11 Apr
02:00
-3°
Voelt als: -6.9°
1021.7 hPa   -5.3°
3
42%105 cm
05:00
-3°
Voelt als: -7.0°
1022.3 hPa   -5.6°
3
48%105 cm
08:00
-2°
Voelt als: -6.0°
1022.5 hPa   -4.7°
3
20%105 cm
11:00
-1°
Voelt als: -2.9°
1022.4 hPa   -5.4°
2
92%105 cm
14:00
-0°
Voelt als: -3.2°
1021.5 hPa   -6.0°
3
89%103 cm
17:00
-0°
Voelt als: -2.8°
1018.9 hPa   -6.6°
2
89%102 cm
20:00
-1°
Voelt als: -3.8°
1015.6 hPa   -6.8°
2
99%101 cm
23:00
-2°
Voelt als: -4.2°
1011.5 hPa   -5.6°
2
94%101 cm
 05:31     20:38    Daglengte: 15:07 Zondag 12 Apr
02:00
-1°
Voelt als: -3.6°
1007.3 hPa   -4.4°
2
88%101 cm
05:00
-1°
Voelt als: -3.6°
1003.3 hPa 1.3 mm -3.8°
2
88%101 cm warningclass
08:00
-2°
Voelt als: -4.2°
1001.0 hPa 4.6 mm -4.1°
2
82%101 cm warningclass
11:00
Voelt als: -1.8°
999.3 hPa   -2.4°
2
83%101 cm
14:00
Voelt als: -1.8°
998.6 hPa 4.8 mm -1.1°
3
56%98 cm
17:00
Voelt als: -1.9°
998.5 hPa 10.7 mm -1.7°
2
87% warningclass
20:00
Voelt als: -3.0°
1001.4 hPa 10.9 mm -2.4°
3
85% warningclass
23:00
-0°
Voelt als: -3.6°
1003.5 hPa 11.0 mm -3.1°
3
78% warningclass
 05:27     20:42    Daglengte: 15:15 Maandag 13 Apr
02:00
-1°
Voelt als: -3.9°
1005.6 hPa 11.1 mm -3.7°
3
71% warningclass
05:00
-1°
Voelt als: -4.8°
1008.6 hPa 11.2 mm -4.0°
3
75% warningclass
08:00
-1°
Voelt als: -5.0°
1011.6 hPa 11.3 mm -4.0°
4
79% warningclass
11:00
Voelt als: -4.7°
1013.0 hPa 11.8 mm -4.0°
5
73% warningclass
14:00
Voelt als: -4.3°
1014.4 hPa 12.0 mm -4.2°
6
67% warningclass
17:00
Voelt als: -3.9°
1014.9 hPa 12.2 mm -3.8°
4
78% warningclass
20:00
-0°
Voelt als: -3.5°
1015.4 hPa 12.3 mm -3.6°
3
90% warningclass
23:00
-1°
Voelt als: -3.1°
1014.9 hPa 12.4 mm -3.1°
2
91% warningclass
 05:24     20:45    Daglengte: 15:21 Dinsdag 14 Apr
02:00
-1°
Voelt als: -2.5°
1014.1 hPa 13.0 mm -2.6°
1
92% warningclass
05:00
-0°
Voelt als: -1.7°
1010.4 hPa 14.4 mm -1.9°
1
92% warningclass
08:00
Voelt als: -0.8°
1006.7 hPa 18.0 mm -1.1°
1
92% warningclass
11:00
Voelt als: -0.3°
1005.0 hPa 25.8 mm 0.4°
2
92%
14:00
Voelt als: 0.4°
1003.5 hPa 34.1 mm 1.9°
2
92%
17:00
Voelt als: -0.0°
1002.6 hPa 39.7 mm 2.4°
3
92%
20:00
Voelt als: -0.5°
1001.8 hPa 46.3 mm 2.7°
4
92%
23:00
Voelt als: 0.1°
1001.1 hPa 52.0 mm 2.7°
3
92%
 05:20     20:49    Daglengte: 15:29 Woensdag 15 Apr
02:00
Voelt als: 0.9°
1000.3 hPa 60.7 mm 2.7°
2
92%
05:00
Voelt als: -0.3°
1001.0 hPa 71.7 mm 2.9°
4
92%
08:00
Voelt als: -0.9°
1001.7 hPa 80.2 mm 3.1°
6
92%
11:00
Voelt als: -0.7°
1003.1 hPa 90.0 mm 3.1°
6
92%
14:00
Voelt als: -0.3°
1004.5 hPa 90.9 mm 3.2°
6
92%
17:00
Voelt als: -0.3°
1004.6 hPa 92.7 mm 3.1°
6
92%
20:00
Voelt als: -0.5°
1004.8 hPa 93.8 mm 3.0°
5
92%
23:00
Voelt als: -0.1°
1004.1 hPa 94.3 mm 2.8°
4
92%
 05:16     20:52    Daglengte: 15:36 Donderdag 16 Apr
02:00
Voelt als: 0.5°
1003.4 hPa 94.8 mm 2.7°
3
92%
05:00
Voelt als: 0.8°
1002.5 hPa 95.4 mm 2.8°
3
92%
08:00
Voelt als: 1.1°
1001.6 hPa 96.3 mm 3.0°
3
92%
11:00
Voelt als: 1.5°
1002.2 hPa   3.2°
3
92%
14:00
Voelt als: 1.8°
1002.7 hPa 196.4 mm 3.4°
3
92%
20:00
Voelt als: -0.8°
1004.1 hPa 203.8 mm 2.0°
4
90%
 05:12     20:56    Daglengte: 15:44 Vrijdag 17 Apr
02:00
Voelt als: 0.1°
1010.1 hPa 214.4 mm 0.5°
1
84%
08:00
Voelt als: 0.9°
1013.4 hPa 216.9 mm -0.1°
1
87% warningclass
14:00
Voelt als: 1.1°
1016.8 hPa 216.9 mm 0.2°
3
87%
20:00
Voelt als: 1.1°
1018.9 hPa 217.3 mm -0.6°
1
70%
 05:08     20:59    Daglengte: 15:51 Zaterdag 18 Apr
02:00
Voelt als: 0.9°
1018.8 hPa 221.4 mm 0.2°
1
84%
08:00
Voelt als: 0.8°
1017.8 hPa 236.9 mm 0.4°
1
82%
14:00
Voelt als: 3.6°
1019.0 hPa 257.0 mm 2.3°
2
87%
20:00
Voelt als: 3.9°
1021.7 hPa 259.1 mm 2.7°
1
83%
 05:04     21:03    Daglengte: 15:59 Zondag 19 Apr
02:00
Voelt als: 0.4°
1027.1 hPa 259.8 mm 2.4°
3
1%
08:00
Voelt als: -0.5°
1010.1 hPa 1.6 mm 1.9°
5
71%
14:00
Voelt als: 1.1°
1010.0 hPa 2.4 mm 3.9°
5
73%
20:00
Voelt als: 0.3°
1011.3 hPa 2.6 mm 2.7°
4
77%
 05:00     21:07    Daglengte: 16:07 Maandag 20 Apr
02:00
Voelt als: -1.4°
1012.4 hPa 1.8 mm 0.9°
4
76%
08:00
Voelt als: 0.5°
1012.9 hPa 1.6 mm 1.7°
3
74%
14:00
Voelt als: 2.4°
1013.3 hPa 1.3 mm 3.7°
3
73%
20:00
Voelt als: 1.7°
1012.2 hPa 1.1 mm 2.6°
2
78%
 04:56     21:10    Daglengte: 16:14 Dinsdag 21 Apr
02:00
Voelt als: -0.3°
1010.8 hPa 1.2 mm 0.8°
2
77%
08:00
Voelt als: 1.6°
1008.5 hPa 1.3 mm 2.0°
2
79%
14:00
Voelt als: 3.1°
1006.9 hPa 1.9 mm 3.8°
2
75%
20:00
Voelt als: 1.3°
1006.1 hPa 2.2 mm 2.3°
2
79%
 04:52     21:14    Daglengte: 16:22 Woensdag 22 Apr
02:00
Voelt als: -0.8°
1006.6 hPa 2.1 mm 0.8°
3
76%
08:00
Voelt als: 0.9°
1006.6 hPa 1.9 mm 1.5°
2
74%
14:00
Voelt als: 2.6°
1008.1 hPa 1.4 mm 3.1°
2
78%
20:00
Voelt als: 1.4°
1009.8 hPa 2.2 mm 2.2°
2
86%
 04:48     21:17    Daglengte: 16:29 Donderdag 23 Apr
02:00
Voelt als: -1.0°
1010.9 hPa 1.9 mm 0.1°
2
81%
08:00
Voelt als: -0.1°
1011.5 hPa 1.3 mm 0.6°
2
75%
14:00
Voelt als: 2.2°
1012.4 hPa 1.3 mm 2.0°
2
68%
20:00
Voelt als: 1.1°
1013.1 hPa 1.1 mm 0.9°
1
72%
 04:44     21:21    Daglengte: 16:37 Vrijdag 24 Apr
02:00
Voelt als: -1.4°
1014.6 hPa 1.0 mm -0.9°
2
63%
08:00
Voelt als: -0.4°
1014.8 hPa 1.3 mm 0.5°
2
66%
  CAPE Lifted Index Hail Supercell Tornado SRH 3km CL BTM PRES CL TOP PRES Swiss DWD icon SMHI TS
 05:43     20:28    Daglengte: 14:45 Vandaag
14:00 8 J/kg 9.2 K 0 % 0 % 0 % 0 m²/s² 0 0 12.35 0
15:00 1 J/kg 9.6 K 0 % 0 % 0 % 0 m²/s² 0 0 12.75 1
16:00 8 J/kg 9.3 K 0 % 0 % 0 % 0 m²/s² 0 0 11.97 0
17:00 6 J/kg 9.1 K 0 % 0 % 0 % 0 m²/s² 0 0 11.56 0
18:00 42 J/kg 8.2 K 0 % 0 % 0 % 0 m²/s² 0 0 11.32 1
19:00 40 J/kg 8.0 K 0 % 0 % 0 % 0 m²/s² 0 0 10.94 1
20:00 3 J/kg 8.6 K 0 % 0 % 0 % 0 m²/s² 0 0 11.3 2
21:00 1 J/kg 8.6 K 0 % 0 % 0 % 0 m²/s² 0 0 9.98 3
22:00 7 J/kg 8.1 K 0 % 0 % 0 % 0 m²/s² 0 0 9.09 85
23:00 12 J/kg 8.4 K 0 % 0 % 0 % 0 m²/s² 0 0 9.42 3
 05:39     20:32    Daglengte: 14:53 Morgen
00:00 22 J/kg 9.2 K 0 % 0 % 0 % 0 m²/s² 0 0 10.1 3
01:00 30 J/kg 9.9 K 0 % 0 % 0 % 0 m²/s² 0 0 10.62 85
02:00 0 J/kg 10.8 K 0 % 0 % 0 % 0 m²/s² 0 0 11.64 3
03:00 0 J/kg 10.7 K 0 % 0 % 0 % 0 m²/s² 0 0 11.6 85
04:00 0 J/kg 10.8 K 0 % 0 % 0 % 0 m²/s² 0 0 11.64 2
05:00 10 J/kg 10.5 K 0 % 0 % 0 % 0 m²/s² 0 0 11.7 2
06:00 0 J/kg 9.7 K 0 % 0 % 0 % 0 m²/s² 0 0 11.17 2
07:00 0 J/kg 9.4 K 0 % 0 % 0 % 0 m²/s² 0 0 10.45 2
08:00 19 J/kg 7.7 K 0 % 0 % 0 % 0 m²/s² 0 0 8.66 3
09:00 73 J/kg 6.4 K 0 % 0 % 0 % 0 m²/s² 0 0 7.27 3
10:00 35 J/kg 6.8 K 0 % 0 % 0 % 0 m²/s² 0 0 7.61 85
11:00 28 J/kg 6.8 K 0 % 0 % 0 % 0 m²/s² 0 0 7.64 71
12:00 44 J/kg 6.8 K 0 % 0 % 0 % 0 m²/s² 0 0 7.76 85
13:00 74 J/kg 6.1 K 0 % 0 % 0 % 0 m²/s² 0 0 7.03 85
14:00 47 J/kg 6.1 K 0 % 0 % 0 % 0 m²/s² 0 0 7.12 85
15:00 134 J/kg 6.3 K 0 % 0 % 0 % 0 m²/s² 0 0 7.14 85
16:00 64 J/kg 7.0 K 0 % 0 % 0 % 0 m²/s² 0 0 7.69 85
17:00 35 J/kg 7.4 K 0 % 0 % 0 % 0 m²/s² 0 0 9.5 71
18:00 25 J/kg 8.0 K 0 % 0 % 0 % 0 m²/s² 0 0 11.27 71
19:00 0 J/kg 9.5 K 0 % 0 % 0 % 0 m²/s² 0 0 12.68 85
20:00 0 J/kg 10.3 K 0 % 0 % 0 % 0 m²/s² 0 0 13.24 2
21:00 0 J/kg 10.5 K 0 % 0 % 0 % 0 m²/s² 0 0 13.53 2
22:00 0 J/kg 10.7 K 0 % 0 % 0 % 0 m²/s² 0 0 14.24 2
23:00 0 J/kg 11.4 K 0 % 0 % 0 % 0 m²/s² 0 0 15.06 2
 05:35     20:35    Daglengte: 15:00 Zaterdag 11 Apr
00:00 0 J/kg 12.2 K 0 % 0 % 0 % 0 m²/s² 0 0 15.98 2
01:00 1 J/kg 11.9 K 0 % 0 % 0 % 0 m²/s² 0 0 15.89 2
02:00 0 J/kg 12.9 K 0 % 0 % 0 % 0 m²/s² 0 0 16.98 2
03:00 0 J/kg 12.8 K 0 % 0 % 0 % 0 m²/s² 0 0 17.12 2
04:00 0 J/kg 13.2 K 0 % 0 % 0 % 0 m²/s² 0 0 17.55 2
05:00 0 J/kg 13.9 K 0 % 0 % 0 % 0 m²/s² 0 0 18.37 3
06:00 0 J/kg 14.2 K 0 % 0 % 0 % 0 m²/s² 0 0 18.91 3
07:00 0 J/kg 14.4 K 0 % 0 % 0 % 0 m²/s² 0 0 19.38 2
08:00 0 J/kg 14.7 K 0 % 0 % 0 % 0 m²/s² 0 0 20.01 2
09:00 0 J/kg 14.7 K 0 % 0 % 0 % 0 m²/s² 0 0 20.01 3
10:00 0 J/kg 14.6 K 0 % 0 % 0 % 0 m²/s² 0 0 20.09 3
11:00 0 J/kg 14.7 K 0 % 0 % 0 % 0 m²/s² 0 0 20.19 71
12:00 0 J/kg 14.8 K 0 % 0 % 0 % 0 m²/s² 0 0 20.44 71
13:00 0 J/kg 14.9 K 0 % 0 % 0 % 0 m²/s² 0 0 20.57 71
14:00 0 J/kg 14.7 K 0 % 0 % 0 % 0 m²/s² 0 0 20.55 71
15:00 0 J/kg 14.5 K 0 % 0 % 0 % 0 m²/s² 0 0 20.38 71
16:00 0 J/kg 14.2 K 0 % 0 % 0 % 0 m²/s² 0 0 20.47 71
17:00 0 J/kg 14.3 K 0 % 0 % 0 % 0 m²/s² 0 0 20.78 71
18:00 0 J/kg 14.2 K 0 % 0 % 0 % 0 m²/s² 0 0 20.68 71
19:00 0 J/kg 14.3 K 0 % 0 % 0 % 0 m²/s² 0 0 20.39 3
20:00 0 J/kg 14.8 K 0 % 0 % 0 % 0 m²/s² 0 0 20.68 3
21:00 0 J/kg 15.1 K 0 % 0 % 0 % 0 m²/s² 0 0 19.36 3
22:00 0 J/kg 13.2 K 0 % 0 % 0 % 0 m²/s² 0 0 14.79 3
23:00 0 J/kg 11.7 K 0 % 0 % 0 % 0 m²/s² 0 0 12.48 3
 05:31     20:38    Daglengte: 15:07 Zondag 12 Apr
00:00 0 J/kg 11.5 K 0 % 0 % 0 % 0 m²/s² 0 0 12.13 3
01:00 0 J/kg 11.7 K 0 % 0 % 0 % 0 m²/s² 0 0 12.27 1
02:00 0 J/kg 11.5 K 0 % 0 % 0 % 0 m²/s² 0 0 12.07 0
03:00 0 J/kg 11.1 K 0 % 0 % 0 % 0 m²/s² 0 0 11.67 0
04:00 0 J/kg 10.7 K 0 % 0 % 0 % 0 m²/s² 0 0 11.27 0
05:00 0 J/kg 10.5 K 0 % 0 % 0 % 0 m²/s² 0 0 11.07 0
06:00 0 J/kg 10.2 K 0 % 0 % 0 % 0 m²/s² 0 0 11.22 2
07:00 0 J/kg 10.6 K 0 % 0 % 0 % 0 m²/s² 0 0 13.51 2
08:00 0 J/kg 11.0 K 0 % 0 % 0 % 0 m²/s² 0 0 16.55 1
09:00 0 J/kg 12.0 K 0 % 0 % 0 % 0 m²/s² 0 0 18.24 3
10:00 0 J/kg 13.5 K 0 % 0 % 0 % 0 m²/s² 0 0 19.68 3
11:00 0 J/kg 12.2 K 0 % 0 % 0 % 0 m²/s² 0 0 17.42 3
12:00 0 J/kg 9.6 K 0 % 0 % 0 % 0 m²/s² 0 0 14.61 85
13:00 21 J/kg 8.2 K 0 % 0 % 0 % 0 m²/s² 0 0 11.74 85
Temp Baro Wind Neerslag
  EWN Forecast EWN WRFDA DWD ICON FMI HIRLAM MET Norway GFS
 05:43     20:28    Daglengte: 14:45 Vandaag
14:00 2.0° 1014.2 hPa 4.3 m/s 0.0 mm 0.9° 1013.2 hPa 4.1 m/s 0.2 mm 2.3° 1013.7 hPa 4.9 m/s -1.8 mm 1.9° 1015.0 hPa 4.9 m/s 0.0 mm 2.9° 1014.4 hPa 4.3 m/s 1.7° 1013.8 hPa 4.1 m/s
17:00 1.6° 1016.1 hPa 3.4 m/s 0.0 mm 0.1° 1014.9 hPa 3.2 m/s 0.6 mm 2.0° 1015.8 hPa 5.4 m/s 0.0 mm 1.8° 1016.4 hPa 3.1 m/s 0.0 mm 2.2° 1016.4 hPa 3.1 m/s 0.7° 1016.0 hPa 3.5 m/s
20:00 -0.1° 1016.9 hPa 3.8 m/s 0.0 mm -2.0° 1016.2 hPa 3.8 m/s 0.8 mm 0.3° 1016.1 hPa 4.9 m/s 0.0 mm 0.3° 1017.0 hPa 3.6 m/s 0.0 mm 0.3° 1017.3 hPa 3.4 m/s -2.6° 1017.9 hPa 2.8 m/s
23:00 -1.4° 1017.6 hPa 3.4 m/s 0.0 mm -1.5° 1016.0 hPa 4.4 m/s 0.9 mm -0.4° 1017.4 hPa 4.3 m/s 0.1 mm -0.9° 1017.9 hPa 2.2 m/s 0.0 mm -1.4° 1018.2 hPa 2.4 m/s -3.8° 1018.2 hPa 2.1 m/s
 05:39     20:32    Daglengte: 14:53 Morgen
02:00 -1.4° 1018.0 hPa 3.5 m/s 0.0 mm -2.3° 1016.7 hPa 3.7 m/s 1.1 mm -1.2° 1017.9 hPa 3.7 m/s 0.1 mm -1.0° 1017.7 hPa 4.0 m/s 0.0 mm -1.0° 1018.4 hPa 2.2 m/s -2.9° 1018.6 hPa 2.7 m/s
05:00 -2.1° 1017.9 hPa 3.6 m/s 0.0 mm -2.8° 1016.8 hPa 4.1 m/s 1.7 mm -1.7° 1018.0 hPa 3.8 m/s 0.1 mm -1.7° 1017.4 hPa 3.1 m/s 0.0 mm -1.9° 1018.4 hPa 3.5 m/s -4.0° 1019.1 hPa 2.3 m/s
08:00 -1.3° 1017.8 hPa 3.9 m/s 0.0 mm -1.4° 1016.7 hPa 6.0 m/s 2.0 mm -1.4° 1018.2 hPa 4.5 m/s 0.0 mm 0.6° 1015.4 hPa 5.2 m/s 0.0 mm -1.3° 1018.1 hPa 1.2 m/s -2.5° 1018.8 hPa 2.7 m/s
11:00 0.1° 1017.0 hPa 4.8 m/s 2.1 mm 0.2° 1017.4 hPa 5.9 m/s 2.5 mm -0.9° 1017.9 hPa 4.8 m/s 1.0 mm 2.3° 1015.0 hPa 5.9 m/s 0.0 mm 0.3° 1016.7 hPa 3.7 m/s -0.7° 1018.6 hPa 5.3 m/s
14:00 0.6° 1016.2 hPa 8.1 m/s 2.2 mm 0.1° 1017.7 hPa 9.9 m/s 2.9 mm 0.3° 1016.8 hPa 5.9 m/s 1.9 mm 2.6° 1013.9 hPa 8.5 m/s 0.0 mm 1.0° 1015.6 hPa 8.7 m/s 0.5° 1019.1 hPa 7.8 m/s
17:00 0.5° 1017.3 hPa 4.7 m/s 2.4 mm 0.4° 1017.1 hPa 7.4 m/s 6.0 mm -0.1° 1016.0 hPa 4.6 m/s 0.9 mm 1.3° 1015.8 hPa 6.2 m/s 0.0 mm 0.9° 1018.6 hPa 3.9 m/s 0.1° 1019.2 hPa 4.2 m/s
20:00 -1.2° 1018.9 hPa 3.2 m/s 1.6 mm -9.9° 1018.4 hPa 3.1 m/s 8.9 mm -0.5° 1017.2 hPa 3.7 m/s 0.6 mm -0.4° 1018.8 hPa 3.1 m/s 0.0 mm -0.3° 1020.1 hPa 3.0 m/s -3.4° 1020.4 hPa 2.8 m/s
23:00 -2.3° 1020.3 hPa 3.5 m/s 0.0 mm -10.0° 1019.0 hPa 3.3 m/s 8.9 mm -1.4° 1018.8 hPa 3.9 m/s 0.0 mm -2.0° 1020.5 hPa 2.1 m/s 0.0 mm -1.4° 1020.6 hPa 3.9 m/s -5.2° 1021.9 hPa 2.4 m/s
 05:35     20:35    Daglengte: 15:00 Zaterdag 11 Apr
02:00 -2.8° 1021.7 hPa 3.1 m/s 0.0 mm -5.8° 1020.1 hPa 2.7 m/s 8.9 mm -1.8° 1020.4 hPa 3.8 m/s 0.0 mm -2.8° 1022.0 hPa 2.4 m/s 0.0 mm -1.3° 1021.8 hPa 3.4 m/s -5.9° 1023.1 hPa 1.9 m/s
05:00 -3.1° 1022.3 hPa 2.8 m/s 0.0 mm -11.4° 1020.5 hPa 2.5 m/s 9.3 mm -2.0° 1021.6 hPa 2.9 m/s 0.1 mm -3.0° 1022.6 hPa 2.5 m/s 0.0 mm -1.5° 1022.4 hPa 2.8 m/s -5.2° 1023.2 hPa 1.0 m/s
08:00 -2.2° 1022.5 hPa 2.9 m/s 0.0 mm -7.0° 1020.4 hPa 2.0 m/s 9.5 mm -1.4° 1022.4 hPa 2.9 m/s 0.0 mm -1.7° 1022.3 hPa 3.0 m/s 0.0 mm -1.2° 1022.6 hPa 2.7 m/s -3.2° 1023.3 hPa 0.5 m/s
11:00 -0.8° 1022.4 hPa 1.6 m/s 0.0 mm -1.7° 1020.1 hPa 0.0 m/s 9.5 mm -0.9° 1023.1 hPa 3.8 m/s 0.0 mm 0.7° 1022.3 hPa 1.3 m/s -1.5° 1022.5 hPa 0.9 m/s
14:00 -0.1° 1021.5 hPa 2.5 m/s 0.0 mm -0.7° 1018.9 hPa 1.8 m/s 9.5 mm -0.6° 1022.3 hPa 3.7 m/s 0.6 mm 2.1° 1021.5 hPa 2.5 m/s -0.2° 1021.4 hPa 1.5 m/s
17:00 -0.2° 1018.9 hPa 2.1 m/s 0.0 mm -0.6° 1015.1 hPa 3.5 m/s 9.5 mm -0.4° 1020.3 hPa 1.9 m/s 0.6 mm 2.1° 1018.9 hPa 2.0 m/s -0.1° 1018.6 hPa 1.7 m/s
20:00 -1.4° 1015.6 hPa 1.8 m/s 0.0 mm -3.2° 1011.7 hPa 3.0 m/s 9.5 mm -0.6° 1018.3 hPa 0.7 m/s 0.1 mm -0.8° 1015.5 hPa 1.8 m/s -3.9° 1015.9 hPa 1.8 m/s
23:00 -1.7° 1011.5 hPa 1.8 m/s 0.0 mm -1.9° 1008.1 hPa 3.2 m/s 9.5 mm -1.4° 1015.6 hPa 1.0 m/s 0.0 mm -0.2° 1011.1 hPa 1.8 m/s -4.8° 1013.3 hPa 1.8 m/s
 05:31     20:38    Daglengte: 15:07 Zondag 12 Apr
02:00 -1.2° 1007.3 hPa 1.8 m/s 0.0 mm -0.6° 1004.6 hPa 3.0 m/s 9.5 mm -3.2° 1012.9 hPa 1.0 m/s 0.0 mm 0.4° 1006.7 hPa 1.8 m/s -4.6° 1010.4 hPa 1.6 m/s
05:00 -1.4° 1003.3 hPa 1.6 m/s 1.3 mm -0.8° 1000.9 hPa 2.8 m/s 10.5 mm -4.4° 1010.5 hPa 1.1 m/s 0.0 mm 0.3° 1002.3 hPa 1.6 m/s -3.9° 1006.7 hPa 1.6 m/s
08:00 -2.1° 1001.0 hPa 1.6 m/s 4.6 mm -2.2° 1000.2 hPa 3.9 m/s 11.4 mm -2.8° 1008.8 hPa 0.8 m/s 0.0 mm 0.2° 997.9 hPa 1.4 m/s -2.6° 1005.3 hPa 1.2 m/s
11:00 0.1° 999.3 hPa 1.6 m/s 0.0 mm -0.4° 1001.6 hPa 3.4 m/s 11.4 mm -1.3° 1008.3 hPa 1.6 m/s 0.0 mm 0.9° 995.0 hPa 1.2 m/s -0.6° 1004.6 hPa 1.9 m/s
14:00 1.2° 998.6 hPa 2.7 m/s 4.8 mm 0.9° 1003.3 hPa 8.2 m/s 11.4 mm 0.2° 1009.3 hPa 3.4 m/s 1.5 mm 1.7° 992.0 hPa 1.1 m/s 0.2° 1006.3 hPa 3.2 m/s
17:00 0.9° 998.5 hPa 2.5 m/s 10.7 mm 1.0° 997.7 hPa 2.2 m/s -0.2° 1008.1 hPa 5.4 m/s 10.7 mm
20:00 0.3° 1001.4 hPa 2.8 m/s 10.9 mm 0.7° 1000.5 hPa 2.8 m/s -4.0° 1011.2 hPa 3.1 m/s 10.9 mm
23:00 -0.2° 1003.5 hPa 2.8 m/s 11.0 mm 0.3° 1002.5 hPa 2.7 m/s -6.6° 1014.8 hPa 3.4 m/s 11.0 mm
 05:27     20:42    Daglengte: 15:15 Maandag 13 Apr
02:00 -0.6° 1005.6 hPa 2.6 m/s 11.1 mm 0.0° 1004.5 hPa 2.6 m/s -7.7° 1017.4 hPa 3.0 m/s 11.1 mm
05:00 -0.8° 1008.6 hPa 3.4 m/s 11.2 mm 0.0° 1007.6 hPa 3.5 m/s -9.7° 1018.9 hPa 1.8 m/s 11.2 mm
08:00 -0.5° 1011.6 hPa 4.1 m/s 11.3 mm 0.0° 1010.8 hPa 4.4 m/s -6.5° 1020.3 hPa 0.9 m/s 11.3 mm
11:00 0.1° 1013.0 hPa 4.7 m/s 11.8 mm 0.5° 1012.2 hPa 5.1 m/s -4.2° 1020.9 hPa 0.8 m/s 11.8 mm
14:00 0.7° 1014.4 hPa 5.5 m/s 12.0 mm 0.9° 1013.7 hPa 5.7 m/s -1.4° 1021.6 hPa 3.9 m/s 12.0 mm
17:00 0.4° 1014.9 hPa 4.1 m/s 12.2 mm 0.6° 1014.3 hPa 4.2 m/s -1.6° 1021.1 hPa 3.5 m/s 12.2 mm
20:00 -0.2° 1015.4 hPa 2.7 m/s 12.3 mm 0.2° 1014.9 hPa 2.7 m/s -5.0° 1020.9 hPa 2.2 m/s 12.3 mm
23:00 -0.6° 1014.9 hPa 2.0 m/s 12.4 mm -0.1° 1014.4 hPa 2.0 m/s -6.0° 1020.0 hPa 1.1 m/s 12.4 mm
 05:24     20:45    Daglengte: 15:21 Dinsdag 14 Apr
02:00 -0.8° 1014.1 hPa 1.4 m/s 13.0 mm -0.4° 1013.9 hPa 1.4 m/s -4.6° 1016.8 hPa 1.6 m/s 13.0 mm
05:00 -0.4° 1010.4 hPa 1.2 m/s 14.4 mm -0.1° 1010.2 hPa 1.2 m/s -3.2° 1012.7 hPa 1.5 m/s 14.4 mm
08:00 0.2° 1006.7 hPa 1.1 m/s 18.0 mm 0.2° 1006.5 hPa 1.0 m/s -0.2° 1008.6 hPa 1.8 m/s 18.0 mm
11:00 1.5° 1005.0 hPa 1.7 m/s 25.8 mm 1.5° 1005.0 hPa 1.7 m/s 1.7° 1005.7 hPa 1.7 m/s 25.8 mm
14:00 2.8° 1003.5 hPa 2.4 m/s 34.1 mm 2.8° 1003.4 hPa 2.4 m/s 2.8° 1004.1 hPa 2.1 m/s 34.1 mm
17:00 3.1° 1002.6 hPa 3.3 m/s 39.7 mm 3.0° 1002.5 hPa 3.3 m/s 4.3° 1003.0 hPa 2.9 m/s 39.7 mm
20:00 3.1° 1001.8 hPa 4.0 m/s 46.3 mm 3.1° 1001.7 hPa 4.2 m/s 2.9° 1002.7 hPa 2.4 m/s 46.3 mm
23:00 3.0° 1001.1 hPa 3.1 m/s 52.0 mm 3.0° 1000.9 hPa 3.2 m/s 2.9° 1003.0 hPa 2.1 m/s 52.0 mm
 05:20     20:49    Daglengte: 15:29 Woensdag 15 Apr
02:00 3.0° 1000.3 hPa 2.2 m/s 60.7 mm 3.0° 1000.1 hPa 2.2 m/s 3.3° 1002.8 hPa 2.2 m/s 60.7 mm
05:00 3.3° 1001.0 hPa 4.0 m/s 71.7 mm 3.2° 1000.9 hPa 4.1 m/s 4.2° 1002.9 hPa 3.0 m/s 71.7 mm
08:00 3.5° 1001.7 hPa 5.8 m/s 80.2 mm 3.4° 1001.6 hPa 6.0 m/s 4.6° 1002.9 hPa 3.5 m/s 80.2 mm
11:00 3.7° 1003.1 hPa 5.9 m/s 90.0 mm 3.8° 1003.0 hPa 6.0 m/s 3.4° 1003.7 hPa 4.6 m/s 90.0 mm
14:00 4.1° 1004.5 hPa 6.0 m/s 90.9 mm 4.1° 1004.5 hPa 6.0 m/s 3.9° 1004.1 hPa 6.2 m/s 90.9 mm
17:00 3.9° 1004.6 hPa 5.6 m/s 92.7 mm 3.8° 1004.8 hPa 5.6 m/s 4.3° 1003.5 hPa 5.8 m/s 92.7 mm
20:00 3.7° 1004.8 hPa 5.3 m/s 93.8 mm 3.6° 1005.0 hPa 5.2 m/s 4.6° 1003.0 hPa 6.9 m/s 93.8 mm
23:00 3.4° 1004.1 hPa 4.1 m/s 94.3 mm 3.4° 1004.1 hPa 3.9 m/s 3.8° 1003.6 hPa 6.3 m/s 94.3 mm
 05:16     20:52    Daglengte: 15:36 Donderdag 16 Apr
02:00 3.2° 1003.4 hPa 2.8 m/s 94.8 mm 3.2° 1003.3 hPa 2.5 m/s 3.3° 1004.5 hPa 6.3 m/s 94.8 mm
05:00 3.3° 1002.5 hPa 2.7 m/s 95.4 mm 3.4° 1002.3 hPa 2.5 m/s 2.8° 1005.2 hPa 5.3 m/s 95.4 mm
08:00 3.5° 1001.6 hPa 2.5 m/s 96.3 mm 3.6° 1001.3 hPa 2.4 m/s 2.6° 1004.6 hPa 3.7 m/s 96.3 mm
11:00 3.9° 1002.2 hPa 2.6 m/s 97.6 mm 4.0° 1002.0 hPa 2.6 m/s 2.7° 1004.6 hPa 2.7 m/s 97.6 mm
14:00 4.2° 1002.7 hPa 2.7 m/s 98.8 mm 4.4° 1002.6 hPa 2.8 m/s 2.5° 1003.6 hPa 1.5 m/s 98.8 mm
20:00 3.1° 1004.1 hPa 4.4 m/s 103.2 mm 3.2° 1004.3 hPa 4.7 m/s 1.8° 1001.6 hPa 1.6 m/s 103.2 mm
 05:12     20:56    Daglengte: 15:44 Vrijdag 17 Apr
02:00 1.5° 1010.1 hPa 1.4 m/s 108.3 mm 1.7° 1010.7 hPa 1.3 m/s -0.6° 1003.7 hPa 2.5 m/s 108.3 mm
08:00 1.1° 1013.4 hPa 0.8 m/s 108.4 mm 1.5° 1013.6 hPa 0.8 m/s -2.9° 1011.5 hPa 0.8 m/s 108.4 mm
14:00 3.6° 1016.8 hPa 2.7 m/s 108.5 mm 3.8° 1016.7 hPa 2.7 m/s 1.2° 1017.5 hPa 2.5 m/s 108.5 mm
20:00 1.9° 1018.9 hPa 1.1 m/s 108.7 mm 2.2° 1018.8 hPa 1.0 m/s -1.2° 1020.0 hPa 2.5 m/s 108.7 mm
 05:08     20:59    Daglengte: 15:51 Zaterdag 18 Apr
02:00 1.7° 1018.8 hPa 1.1 m/s 111.6 mm 1.9° 1018.7 hPa 0.9 m/s -0.0° 1019.6 hPa 3.6 m/s 111.6 mm
08:00 2.1° 1017.8 hPa 1.4 m/s 121.7 mm 2.1° 1017.8 hPa 0.9 m/s 2.7° 1018.3 hPa 7.2 m/s 121.7 mm
14:00 5.2° 1019.0 hPa 2.0 m/s 129.1 mm 5.3° 1018.8 hPa 1.6 m/s 3.9° 1021.1 hPa 6.7 m/s 129.1 mm
20:00 4.6° 1021.7 hPa 1.2 m/s 129.6 mm 4.7° 1021.4 hPa 1.0 m/s 3.8° 1024.5 hPa 3.5 m/s 129.6 mm
 05:04     21:03    Daglengte: 15:59 Zondag 19 Apr
02:00 3.0° 1027.1 hPa 2.7 m/s 130.0 mm 3.0° 1027.1 hPa 2.7 m/s 130.0 mm
08:00 3.4° 1010.1 hPa 4.7 m/s 1.6 mm
14:00 4.8° 1010.0 hPa 5.0 m/s 2.4 mm
20:00 3.7° 1011.3 hPa 4.0 m/s 2.6 mm
 05:00     21:07    Daglengte: 16:07 Maandag 20 Apr
02:00 2.1° 1012.4 hPa 3.5 m/s 1.8 mm
08:00 3.1° 1012.9 hPa 2.6 m/s 1.6 mm
14:00 4.7° 1013.3 hPa 2.8 m/s 1.3 mm
20:00 3.7° 1012.2 hPa 2.2 m/s 1.1 mm
 04:56     21:10    Daglengte: 16:14 Dinsdag 21 Apr
02:00 2.0° 1010.8 hPa 2.2 m/s 1.2 mm
08:00 3.2° 1008.5 hPa 1.7 m/s 1.3 mm
14:00 4.9° 1006.9 hPa 2.2 m/s 1.9 mm
20:00 3.5° 1006.1 hPa 2.4 m/s 2.2 mm
 04:52     21:14    Daglengte: 16:22 Woensdag 22 Apr
02:00 2.0° 1006.6 hPa 2.7 m/s 2.1 mm
08:00 2.8° 1006.6 hPa 1.9 m/s 1.9 mm
14:00 4.4° 1008.1 hPa 2.0 m/s 1.4 mm
20:00 3.4° 1009.8 hPa 2.0 m/s 2.2 mm
 04:48     21:17    Daglengte: 16:29 Donderdag 23 Apr
02:00 1.3° 1010.9 hPa 2.0 m/s 1.9 mm
08:00 2.0° 1011.5 hPa 2.0 m/s 1.3 mm
14:00 3.8° 1012.4 hPa 1.8 m/s 1.3 mm
20:00 2.4° 1013.1 hPa 1.4 m/s 1.1 mm
 04:44     21:21    Daglengte: 16:37 Vrijdag 24 Apr
02:00 0.3° 1014.6 hPa 1.5 m/s 1.0 mm
08:00 1.9° 1014.8 hPa 2.1 m/s 1.3 mm
FMI Hirlam - 7.5 km EWN WRFDA - 12 km DWD ICON - 7 km GFS - 25 km Basiskaart






























































Updatetijd (Europe/Amsterdam) Resolutie Lengte Stap
FMI Hirlam 13:45, 19:45, 01:45, 07:45 7.5 km 49h 1h
EWN WRFDA 09:30, 15:30, 21:30, 03:30 12 km 73h 1h
DWD ICON 11:45, 17:45, 23:45, 05:45 7 km 75h 1h
GFS 13:45, 19:45, 01:45, 07:45 25 km 237h 3h
30+ mm
25-30 mm
20-25 mm
15-20 mm
10-15 mm
6-10 mm
4-6 mm
2-4 mm
1-2 mm
0.5-1 mm
0.2-0.5 mm
0.1-0.2 mm
30+ mm
25-30 mm
20-25 mm
15-20 mm
10-15 mm
6-10 mm
4-6 mm
2-4 mm
1-2 mm
0.5-1 mm
0.2-0.5 mm
0.1-0.2 mm
Sneeuwval
Natte sneeuw
Hagel
Vorst
30+ mm
25-30 mm
20-25 mm
15-20 mm
10-15 mm
6-10 mm
4-6 mm
2-4 mm
1-2 mm
0.5-1 mm
0.2-0.5 mm
0.1-0.2 mm
Sneeuwval
Natte sneeuw
Hagel
Vorst
Onweer
50 mm
40 mm
30 mm
26 mm
22 mm
18 mm
14 mm
10 mm
9 mm
8 mm
7 mm
6 mm
5 mm
4.5 mm
4 mm
3.5 mm
3 mm
2.5 mm
2 mm
1.5 mm
1 mm
0.8 mm
0.6 mm
0.4 mm
0.2 mm
0.05 mm
35°
30°
25°
20°
15°
10°
-5°
-10°
-15°
-20°
-25°
-30°
-35°
120> km/h
105 km/h
90 km/h
75 km/h
60 km/h
50 km/h
40 km/h
30 km/h
20 km/h
10 km/h
0 km/h
2600 J/kg
2400 J/kg
2200 J/kg
2000 J/kg
1800 J/kg
1600 J/kg
1400 J/kg
1200 J/kg
1000 J/kg
800 J/kg
600 J/kg
400 J/kg
200 J/kg
70 dBZ
65 dBZ
60 dBZ
55 dBZ
50 dBZ
45 dBZ
40 dBZ
35 dBZ
30 dBZ
25 dBZ
20 dBZ
15 dBZ
10 dBZ
5 dBZ
-1 K
-2 K
-3 K
-4 K
-5 K
-6 K
-7 K
-8 K
-9 K
950 m²/s²
900 m²/s²
850 m²/s²
800 m²/s²
750 m²/s²
700 m²/s²
650 m²/s²
600 m²/s²
550 m²/s²
500 m²/s²
450 m²/s²
400 m²/s²
350 m²/s²
300 m²/s²
250 m²/s²
200 m²/s²
150 m²/s²
100 m²/s²
46 m/s
44 m/s
42 m/s
40 m/s
38 m/s
36 m/s
34 m/s
32 m/s
30 m/s
28 m/s
26 m/s
24 m/s
22 m/s
20 m/s
16 m/s
12 m/s
8 m/s
4 m/s
30 m/s
28 m/s
26 m/s
24 m/s
22 m/s
20 m/s
18 m/s
16 m/s
14 m/s
12 m/s
10 m/s
8 m/s
6 m/s
4 m/s
2 m/s
3.0
2.8
2.6
2.4
2.2
2.0
1.8
1.6
1.4
1.2
1.0
0.8
0.6
0.4
0.2
15
14
13
12
11
10
9
8
7
6
5
4
3
2
1
90%
80%
70%
60%
50%
40%
30%
20%
10%
42
40
38
36
34
32
30
28
26
24
22
20
18
16
14
12
90+ cm
80-90 cm
70-80 cm
60-70 cm
50-60 cm
40-50 cm
30-40 cm
20-30 cm
10-20 cm
1-10 cm
Sneeuwval
Natte sneeuw
Regen
>120 mm
115 mm
110 mm
105 mm
100 mm
95 mm
90 mm
85 mm
80 mm
75 mm
70 mm
65 mm
60 mm
55 mm
50 mm
45 mm
45 mm
40 mm
35 mm
30 mm
25 mm
20 mm
15 mm
10 mm
5 mm
0.1 mm
960 hPa
880 hPa
800 hPa
720 hPa
640 hPa
560 hPa
584 gpdm
568 gpdm
552 gpdm
536 gpdm
520 gpdm
504 gpdm
488 gpdm
Extreem zwaar Noodweer Kans op onweer
15% 15% 5% 50% 15%

Dag




Kaart






35°
30°
25°
20°
15°
10°
-5°
-10°
-15°
-20°
-25°
-30°
-35°
120> km/h
105 km/h
90 km/h
75 km/h
60 km/h
50 km/h
40 km/h
30 km/h
20 km/h
10 km/h
0 km/h
Extreem zwaar Noodweer Kans op onweer
15% 15% 5% 50% 15%
>120 mm
115 mm
110 mm
105 mm
100 mm
95 mm
90 mm
85 mm
80 mm
75 mm
70 mm
65 mm
60 mm
55 mm
50 mm
45 mm
45 mm
40 mm
35 mm
30 mm
25 mm
20 mm
15 mm
10 mm
5 mm
0.1 mm
Onweer risico kaarten - De groene en gele kleur geeft de kans op onweer aan binnen 40 km van een punt. Oranje, rood en violet hebben hetzelfde niveau zoals je het ziet op estofex.org waaronder ook de kans op hagel en supercells.

dBZ - dBZ staat voor decibel ten opzichte van Z.

Cape - Convective available potential energy (CAPE), is de totale hoeveelheid energie die een luchtpakketje nodig heeft om zover mogelijk te stijgen in de atmosfeer.

K Index - K-Index wordt berekend door de Vertical Totals (VT) en het verschil tussen de 850 hPa temperatuur en de 700 hPa dauwpuntsdepressie (Tdd 700) bij elkaar op te tellen.

TT Index - Convectie index wordt gebruikt voor het voorspellen van zware buien of onweer.

WRF - The Weather Research and Forecasting (WRF) is een volgende generatie mesoscale numeriek weersvoorspelling systeem ontworpen om zowel de operationele planning als het atmosferisch onderzoek te dienen. WRF is a cooperatie tussen het National Center for Atmospheric Research (NCAR), National Centers for Environmental Prediction (NCEP), Forecast Systems Laboratory (FSL), Air Force Weather Agency (AFWA), Naval Research Laboratory, University of Oklahoma, en de Federal Aviation Administration (FAA). Deze software draait op onze server.

WRFDA - Een meer geavanceerde versie van WRF

Arome - Het 2.5 km Arome model. Verzorgd door het Noors Meteorologisch Instituut.

MET Norway - De proff-default 4km meteorological data is een beste keus selectie van meteorologische modellen gebruikt door met.no die zijn geïnterpoleerd tot een gemeenschappelijke dataset. Verzorgd door het Noorse Meteorologisch Instituut.

SMHI - Het Hirlam model verzorgd door het Zweeds meteorologisch instituut.

FMI - Het Hirlam model verzorgd door het Fins meteorologisch instituut. Dekking alleen Finland.

GFS - Het Global Forecast Systeem (GFS) is een wereldwijd numerieke weersvoorspelling computermodel, gerund door NOAA.

GEM-GDPS - Het GEM-GDPS is a wereldwijd numeriek weersvoorspelling computermodel verzorgd door het Canadees Meteorologisch Centrum.

Credits/Info: Dank aan Stefan Gofferje van sääkeskus.fi voor enkele formules van GrADS. Info: Wikipedia.

Betrouwbaarheid van de verwachting

NB! 2015-03-29: Rebuilding the accuracy-test!

EWNACC
Day 1 Good forecasts

Dag 1 Tmax

Dag 2 Tmax

Geladen verwachtingen TOP 50

Totaal geladen verwachtingen:
Plaats Latitude Longitude Verwachtingen Plaats Latitude Longitude Verwachtingen